This demonstration page uses our WeatherBlox Daily Observations layout. Learn more.

Left ArrowRight Arrow

47.50024, -111.30081

Hourly Observations for June 13, 2020

Temp ( °F °C ) Dew Point ( °F °C ) Humidity (%) Winds ( mph kmh ) Pressure ( in mb ) Visibility ( mi km ) Precip ( " mm )
12:53 am 00:53 Clear 64 17.8 41 5 43 43 SSW 8 13 29.66 1004 10 16 0.00 0.00
1:53 am 01:53 Clear 60 15.6 43 6.1 53 53 WNW 10 17 29.64 1004 10 16 0.00 0.00
2:53 am 02:53 Clear 58 14.4 48 8.9 70 70 NW 5 7 29.65 1004 10 16 0.00 0.00
3:53 am 03:53 Clear 57 13.9 47 8.3 69 69 WNW 7 11 29.61 1003 10 16 0.00 0.00
4:53 am 04:53 Clear 53 11.7 47 8.3 80 80 W 9 15 29.60 1002 10 16 0.00 0.00
5:53 am 05:53 Mostly Sunny 56 13.3 47 8.3 72 72 SSW 14 22 29.65 1004 10 16 0.00 0.00
6:53 am 06:53 Sunny 55 12.8 47 8.3 74 74 W 7 11 29.61 1003 10 16 0.00 0.00
7:53 am 07:53 Sunny 58 14.4 48 8.9 70 70 WSW 8 13 29.61 1003 10 16 0.00 0.00
8:53 am 08:53 Sunny 59 15 49 9.4 69 69 WSW 10 17 29.62 1003 10 16 0.00 0.00
9:53 am 09:53 Sunny 66 18.9 48 8.9 52 52 WSW 12 19 29.59 1002 10 16 0.00 0.00
10:53 am 10:53 Sunny 70 21.1 49 9.4 47 47 WSW 8 13 29.55 1001 10 16 0.00 0.00
11:53 am 11:53 Sunny 73 22.8 50 10 44 44 WNW 9 15 29.52 1000 10 16 0.00 0.00
12:53 pm 12:53 Sunny 77 25 52 11.1 42 42 WNW 7 11 29.50 999 10 16 0.00 0.00
1:53 pm 13:53 Sunny 79 26.1 52 11.1 39 39 E 6 9 29.48 998 10 16 0.00 0.00
2:53 pm 14:53 Sunny 80 26.7 54 12.2 41 41 E 12 19 29.47 998 10 16 0.00 0.00
3:53 pm 15:53 Sunny 79 26.1 56 13.3 45 45 ENE 10 17 29.46 998 10 16 0.00 0.00
4:33 pm 16:33 Sunny 82 27.8 46 7.8 28 28 W 12 19 29.29 992 10 16 0.00 0.00
4:53 pm 16:53 Sunny 84 28.9 44 6.7 25 25 WSW 15 24 29.47 998 10 16 0.00 0.00
5:53 pm 17:53 Sunny 79 26.1 34 1.1 20 20 SW 14 22 29.48 998 10 16 0.00 0.00
6:53 pm 18:53 Sunny 80 26.7 29 -1.7 15 15 SSW 21 33 29.49 999 10 16 0.00 0.00
7:48 pm 19:48 Sunny 70 21 43 6 38 38 W 24 39 29.43 997 10 16 0.00 0.00
7:53 pm 19:53 Sunny 69 20.6 41 5 36 36 W 30 48 29.55 1001 10 16 0.00 0.00
8:53 pm 20:53 Sunny 64 17.8 39 3.9 40 40 W 15 24 29.60 1003 10 16 0.00 0.00
9:53 pm 21:53 Clear 61 16.1 35 1.7 38 38 WSW 21 33 29.60 1002 10 16 0.00 0.00
10:53 pm 22:53 Clear 57 13.9 36 2.2 45 45 WSW 16 26 29.63 1003 10 16 0.00 0.00
11:53 pm 23:53 Clear 54 12.2 35 1.7 49 49 W 10 17 29.67 1005 10 16 0.00 0.00

Powered by AerisWeather